Regional Weather Roundup
Issued by NWS

Home | Current Version | Previous Version | Text Only | Print | Product List | Glossary On
Versions: 1 2 3 4 5 6 7 8 9 10 11 12 13 14 15 16 17 18 19 20 21 22 23 24 25 26 27 28 29 30 31 32 33 34 35 36 37 38 39 40 41 42 43 44 45 46 47 48 49 50
000
ASUS45 KCYS 181610
RWRWY

WYOMING REGIONAL WEATHER ROUNDUP
NATIONAL WEATHER SERVICE CHEYENNE WY
900 AM MST WED JAN 18 2017

NOTE:  "FAIR" INDICATES FEW OR NO CLOUDS BELOW 12,000 FEET
WITH NO SIGNIFICANT WEATHER AND/OR OBSTRUCTIONS TO VISIBILITY.

WYZ001-181700-
YELLOWSTONE NATIONAL PARK

CITY           SKY/WX    TMP DP  RH WIND       PRES   REMARKS
LK YELLOWSTONE   N/A     -5  -8  87 CALM      30.04F
W YELLOWSTONE  NOT AVBL

$$
WYZ002>013-054>058-071-098>099-181700-
NORTHERN WYOMING

CITY           SKY/WX    TMP DP  RH WIND       PRES   REMARKS
JACKSON        PTCLDY    -9 -11  92 N6        30.12R WCI -23
CODY           FAIR      20  11  68 CALM      29.84S
GREYBULL       FAIR      -3 -10  72 NW6       29.91S WCI -15
WORLAND        FAIR      12   6  77 S13       29.88F WCI  -3
SHERIDAN       FAIR      19  12  74 VRB6      29.73F WCI  11
BUFFALO        FAIR      33  16  49 S6        29.77S WCI  28
GILLETTE       FAIR      32  18  56 VRB5      29.78F WCI  27
HULETT         FAIR      32  18  55 W12       29.79S WCI  23
NEWCASTLE      FAIR      23  12  63 N5        29.87S WCI  17

$$
WYZ014>020-022>026-101>103-181700-
CENTRAL WYOMING

CITY           SKY/WX    TMP DP  RH WIND       PRES   REMARKS
BIG PINEY      FAIR     -14 -21  71 NE9       30.07S WCI -33
PINEDALE       LGT SNOW -11 -17  77 NW7       30.08R WCI -26
DUBOIS         NOT AVBL
LANDER         FAIR       9   5  84 CALM      29.96F
RIVERTON       FAIR       5   3  91 S3        29.98S
CASPER         FAIR      33  17  51 SW31G45   29.90S WCI  19
DOUGLAS        FAIR      24  15  68 CALM      29.88F

$$
WYZ021-027>030-104>119-181700-
SOUTHERN WYOMING

CITY           SKY/WX    TMP DP  RH WIND       PRES   REMARKS
EVANSTON       FAIR      17   6  62 SW6       30.06S WCI   9
ROCK SPRINGS   FAIR      -6 -11  79 CALM      30.07F HAZE
RAWLINS        FAIR       8   4  83 CALM      30.07R
LARAMIE        FAIR       5   2  87 NW5       29.99R WCI  -4
CHEYENNE       FAIR      37  11  34 W7        29.91F WCI  32
TORRINGTON     FAIR      28  17  63 CALM      29.87F

$$



USA.gov is the U.S. government's official web portal to all federal, state and local government web resources and services.